Regional Weather Roundup
Issued by NWS Kansas City/Pleasant Hill, MO

Home | Current Version | Previous Version | Text Only | Print | Product List | Glossary On
Versions: 1 2 3 4 5 6 7 8 9 10 11 12 13 14 15 16 17 18 19 20 21 22 23 24 25 26 27 28 29 30 31 32 33 34 35 36 37 38 39 40 41 42 43 44 45 46 47 48 49 50
267
ASUS43 KEAX 131610
RWREAX

WEATHER ROUNDUP FOR EASTERN KANSAS AND NORTHWEST MISSOURI
NATIONAL WEATHER SERVICE KANSAS CITY/PLEASANT HILL MO
1000 AM CST SAT FEB 13 2016

KSZ040-057-103>105-MOZ028-029-037-043-131700-
...KANSAS CITY METROPOLITAN AREA...

CITY           SKY/WX    TMP DP  RH WIND       PRES   REMARKS
K.C. INTL      CLOUDY    17   3  54 SE8       30.57F WCI   7
K.C. DOWNTOWN  CLOUDY    19   2  47 E9        30.59F WCI   8
LEES SUMMIT    CLOUDY    17   2  51 E10       30.58F WCI   5
OLATHE - IXD   CLOUDY    19   1  45 E10       30.56F WCI   7
OLATHE - OJC   CLOUDY    17   2  51 E10       30.55F WCI   5
LAWRENCE       CLOUDY    20   3  48 SE8       30.57F WCI  10

$$

MOZ001>008-011>017-020>025-030>033-038>040-044>046-053-054-131700-
...NORTHERN AND CENTRAL MISSOURI...

CITY           SKY/WX    TMP DP  RH WIND       PRES   REMARKS
ST. JOSEPH     CLOUDY    15   2  56 E8        30.61F WCI   4
MOSBY            N/A     18   3  53 E8        30.61F WCI   7
WARRENSBURG    CLOUDY    18   3  53 E6        30.60F WCI   9
WHITEMAN AFB   CLOUDY    17   2  53 NE6       30.59F WCI   8
CLINTON          N/A     21   5  49 E9        30.60S WCI  11
SEDALIA        CLOUDY    17   3  54 E9        30.61F WCI   6
WARSAW         NOT AVBL
CHILLICOTHE      N/A     13   0  56 E8        30.65F WCI   2
KIRKSVILLE     CLOUDY    11  -3  53 E5        30.63F WCI   3

$$

MOZ041-047>049-056>058-063>065-088>090-097-131700-
...EASTERN AND SOUTHERN MISSOURI...

CITY           SKY/WX    TMP DP  RH WIND       PRES   REMARKS
ST. LOUIS INTL CLOUDY    16  -1  47 N7        30.67F WCI   6
SPIRIT OF STL  CLOUDY    16   1  51 N6        30.67F WCI   7
COLUMBIA       PTSUNNY   15   2  56 NE5       30.62F WCI   8
JEFFERSON CITY CLOUDY    15   0  51 E8        30.66F WCI   4
ROLLA          CLOUDY    15   2  56 NE6       30.57F WCI   6
OSAGE BEACH    CLOUDY    18   0  45 NE10      30.59F WCI   6
SPRINGFIELD    CLOUDY    25   0  33 E8        30.53S WCI  16
BRANSON        MOSUNNY   28   5  37 E5        30.54F WCI  23
JOPLIN         SUNNY     27   2  34 E12       30.53F WCI  17
WEST PLAINS    CLOUDY    23  -3  32 NE8       30.55F WCI  14

$$

IAZ060-094-KSZ022-034>040-054-083-096-NEZ052-066-093-131700-
...KANSAS...SOUTHEAST NEBRASKA AND IOWA...

CITY           SKY/WX    TMP DP  RH WIND       PRES   REMARKS
TOPEKA         CLOUDY    21   3  45 E8        30.56F WCI  11
MANHATTAN      CLOUDY    22   7  52 E10       30.53F WCI  11
EMPORIA        CLOUDY    24   4  42 E14G20    30.50F WCI  12
CHANUTE        CLOUDY    27   4  37 E14       30.53F WCI  16
WICHITA        CLOUDY    28   7  41 SE13      30.47S WCI  17
OMAHA          CLOUDY    12   3  67 SE9       30.58F WCI   0
LINCOLN        CLOUDY    16   4  59 SE9       30.54F WCI   4
FALLS CITY     CLOUDY    16   3  56 E12       30.57F WCI   3
LAMONI         CLOUDY     8  -2  63 E6        30.60F WCI  -2
DES MOINES     CLOUDY     8  -6  52 SE5       30.64F WCI   0

$$





USA.gov is the U.S. government's official web portal to all federal, state and local government web resources and services.